Effective Sunday, March 17, 2024, the National Weather Service National Data Buoy Center will discontinue its Dial-A-Buoy Interactive Voice Response system. For more information, see Service Change Notice 24-06 (PDF).

Station CLBP4 - 9752235 - Culebra, PR Image indicating link to RSS feed of recent meteorological observations for station CLBP4


Conditions at CLBP4 as of
(6:54 pm AST)
2254 GMT on 02/23/2024:
     

Click on the graph icon in the table below to see a time series plot of the last five days of that observation.

5-day plot - Atmospheric Pressure Atmospheric Pressure (PRES):29.99 in
5-day plot - Air Temperature Air Temperature (ATMP): 77.7 °F
5-day plot - Water Temperature Water Temperature (WTMP): 81.5 °F
NOS Water Level Observation Network Water Level
Previous observations
TIME
(AST)
5-day plot - Wind Direction
WDIR
 
5-day plot - Wind Speed
WSPD
kts
5-day plot - Wind Gust
GST
kts
5-day plot - Wave Height
WVHT
ft
5-day plot - Dominant Wave Period
DPD
sec
5-day plot - Average Wave Period
APD
sec
5-day plot - Mean Wave Direction
MWD
 
5-day plot - Atmospheric Pressure
PRES
in
5-day plot - Pressure Tendency
PTDY
in
5-day plot - Air Temperature
ATMP
°F
5-day plot - Water Temperature
WTMP
°F
5-day plot - Dew Point
DEWP
°F
5-day plot - Salinity
SAL
psu
5-day plot - Visibility
VIS
nmi
5-day plot - Tide (above MLLW)
TIDE
ft
2024-02-23 06:48 pm-------29.99- 78.4 81.5----
2024-02-23 06:42 pm-------29.99- 78.6 81.5----
2024-02-23 06:36 pm-------29.99- 78.6 81.5----
2024-02-23 06:30 pm-------29.99- 79.2 81.5----
2024-02-23 06:24 pm-------29.98- 79.2 81.5----
2024-02-23 06:18 pm-------29.98- 80.1 81.5----
2024-02-23 06:12 pm-------29.98- 81.0 81.5----
2024-02-23 06:06 pm-------29.98- 81.5 81.5----
2024-02-23 06:00 pm-------29.98+0.02 82.4 81.5----
2024-02-23 05:54 pm-------29.98- 82.2 81.5----
2024-02-23 05:48 pm-------29.98- 82.6 81.5----
2024-02-23 05:42 pm-------29.98- 82.8 81.5----
2024-02-23 05:36 pm-------29.97- 82.9 81.5----
2024-02-23 05:30 pm-------29.97- 82.8 81.5----
2024-02-23 05:24 pm-------29.97- 82.9 81.5----
2024-02-23 05:18 pm-------29.97- 83.3 81.5----
2024-02-23 05:12 pm-------29.97- 83.3 81.5----
2024-02-23 05:06 pm-------29.97- 82.0 81.5----
2024-02-23 05:00 pm-------29.97-0.01 82.8 81.5----
2024-02-23 04:54 pm-------29.97- 84.4 81.5----
2024-02-23 04:48 pm-------29.96- 83.7 81.5----
2024-02-23 04:42 pm-------29.96- 83.1 81.5----
2024-02-23 04:36 pm-------29.96- 82.9 81.5----
2024-02-23 04:30 pm-------29.96- 83.7 81.5----
2024-02-23 04:24 pm-------29.96- 83.5 81.5----
2024-02-23 04:18 pm-------29.96- 82.2 81.5----
2024-02-23 04:12 pm-------29.96- 82.9 81.5----
2024-02-23 04:06 pm-------29.96- 83.5 81.5----
2024-02-23 04:00 pm-------29.96-0.04 83.1 81.3----
2024-02-23 03:54 pm-------29.96- 83.3 81.5----
2024-02-23 03:48 pm-------29.96- 83.7 81.5----
2024-02-23 03:42 pm-------29.96- 82.8 81.5----
2024-02-23 03:36 pm-------29.96- 83.3 81.3----
2024-02-23 03:30 pm-------29.96- 82.8 81.3----
2024-02-23 03:24 pm-------29.96- 84.4 81.3----
2024-02-23 03:18 pm-------29.96- 82.9 81.3----
2024-02-23 03:12 pm-------29.96- 84.6 81.3----
2024-02-23 03:06 pm-------29.96- 82.8 81.3----
2024-02-23 03:00 pm-------29.96-0.06 83.1 81.3----
2024-02-23 02:54 pm-------29.96- 83.5 81.5----
2024-02-23 02:48 pm-------29.97- 84.0 81.3----
2024-02-23 02:42 pm-------29.97- 82.9 81.3----
2024-02-23 02:36 pm-------29.97- 81.5 81.1----
2024-02-23 02:30 pm-------29.97- 82.0 81.1----
2024-02-23 02:24 pm-------29.97- 81.7 81.1----
2024-02-23 02:18 pm-------29.97- 82.6 81.1----
2024-02-23 02:12 pm-------29.98- 81.9 81.1----
2024-02-23 02:06 pm-------29.98- 81.0 81.1----
2024-02-23 02:00 pm-------29.98-0.06 82.2 81.1----
2024-02-23 01:54 pm-------29.98- 82.8 81.1----
2024-02-23 01:48 pm-------29.98- 82.2 81.0----
2024-02-23 01:42 pm-------29.99- 82.0 81.0----
2024-02-23 01:36 pm-------29.99- 82.4 81.0----
2024-02-23 01:30 pm-------29.99- 82.4 81.1----
2024-02-23 01:24 pm-------29.99- 81.5 81.1----
2024-02-23 01:18 pm-------30.00- 81.3 81.0----
2024-02-23 01:12 pm-------30.00- 81.5 81.0----
2024-02-23 01:06 pm-------30.00- 81.5 81.0----
2024-02-23 01:00 pm-------30.01-0.04 81.1 81.0----
2024-02-23 12:54 pm-------30.01- 81.1 80.8----
2024-02-23 12:48 pm-------30.01- 80.2 80.8----
2024-02-23 12:42 pm-------30.01- 80.4 80.8----
2024-02-23 12:36 pm-------30.01- 81.0 80.8----
2024-02-23 12:30 pm-------30.01- 81.9 80.6----
2024-02-23 12:24 pm-------30.01- 81.1 80.6----
2024-02-23 12:18 pm-------30.02- 80.6 80.6----
2024-02-23 12:12 pm-------30.02- 81.3 80.6----
2024-02-23 12:06 pm-------30.03- 80.8 80.6----
2024-02-23 12:00 pm-------30.03+0.00 80.1 80.6----
2024-02-23 11:54 am-------30.03- 80.8 80.6----
2024-02-23 11:48 am-------30.03- 81.0 80.6----
2024-02-23 11:42 am-------30.03- 79.9 80.6----
2024-02-23 11:36 am-------30.03- 81.0 80.4----
2024-02-23 11:30 am-------30.04- 80.2 80.6----
2024-02-23 11:24 am-------30.04- 79.9 80.4----
2024-02-23 11:18 am-------30.04- 79.3 80.4----
2024-02-23 11:12 am-------30.05- 79.3 80.4----
2024-02-23 11:06 am-------30.04- 80.1 80.2----
2024-02-23 11:00 am-------30.05+0.04 79.7 80.2----
2024-02-23 10:54 am-------30.05- 79.5 80.2----
2024-02-23 10:48 am-------30.05- 79.9 80.2----
2024-02-23 10:42 am-------30.05- 79.2 80.2----
2024-02-23 10:36 am-------30.05- 79.3 80.2----
2024-02-23 10:30 am-------30.05- 79.0 80.2----
2024-02-23 10:24 am-------30.05- 78.8 80.2----
2024-02-23 10:18 am-------30.04- 79.2 80.1----
2024-02-23 10:12 am-------30.04- 78.4 80.1----
2024-02-23 10:06 am-------30.05- 78.6 80.1----
2024-02-23 10:00 am-------30.04+0.06 78.8 80.1----
2024-02-23 09:54 am-------30.04- 78.6 80.1----
2024-02-23 09:48 am-------30.04- 78.4 80.1----
2024-02-23 09:42 am-------30.04- 77.7 80.1----
2024-02-23 09:36 am-------30.04- 78.1 80.1----
2024-02-23 09:30 am-------30.03- 78.3 80.1----
2024-02-23 09:24 am-------30.03- 78.3 80.1----
2024-02-23 09:18 am-------30.03- 77.7 80.1----
2024-02-23 09:12 am-------30.03- 77.7 80.1----
2024-02-23 09:06 am-------30.02- 77.7 80.1----
2024-02-23 09:00 am-------30.02+0.07 77.4 80.1----
2024-02-23 08:54 am-------30.02- 77.5 80.1----
2024-02-23 08:48 am-------30.02- 77.2 80.1----
2024-02-23 08:42 am-------30.01- 77.4 80.1----
2024-02-23 08:36 am-------30.01- 77.0 80.1----
2024-02-23 08:30 am-------30.01- 77.0 80.1----
2024-02-23 08:24 am-------30.01- 77.0 80.1----
2024-02-23 08:18 am-------30.01- 76.8 80.1----
2024-02-23 08:12 am-------30.01- 76.5 80.1----
2024-02-23 08:06 am-------30.01- 76.3 80.1----
2024-02-23 08:00 am-------30.01+0.06 76.3 80.1----
2024-02-23 07:54 am-------30.00- 75.7 80.1----
2024-02-23 07:48 am-------30.00- 75.7 80.1----
2024-02-23 07:42 am-------30.00- 75.2 80.2----
2024-02-23 07:36 am-------30.00- 75.2 80.2----
2024-02-23 07:30 am-------29.99- 74.8 80.2----
2024-02-23 07:24 am-------29.99- 74.3 80.2----
2024-02-23 07:18 am-------29.99- 74.7 80.2----
2024-02-23 07:12 am-------29.99- 74.1 80.2----
2024-02-23 07:06 am-------29.98- 73.9 80.2----
2024-02-23 07:00 am-------29.98+0.05 73.9 80.2----
2024-02-23 06:54 am-------29.98- 73.9 80.2----
2024-02-23 06:48 am-------29.98- 73.9 80.2----
2024-02-23 06:42 am-------29.97- 73.9 80.2----
2024-02-23 06:36 am-------29.97- 73.8 80.2----
2024-02-23 06:30 am-------29.97- 73.9 80.2----
2024-02-23 06:24 am-------29.97- 74.1 80.2----
2024-02-23 06:18 am-------29.96- 74.1 80.4----
2024-02-23 06:12 am-------29.96- 74.1 80.4----
2024-02-23 06:06 am-------29.96- 73.8 80.4----
2024-02-23 06:00 am-------29.96+0.02 73.9 80.4----
2024-02-23 05:54 am-------29.96- 73.6 80.4----
2024-02-23 05:48 am-------29.95- 73.9 80.4----
2024-02-23 05:42 am-------29.95- 73.9 80.4----
2024-02-23 05:36 am-------29.95- 74.1 80.4----
2024-02-23 05:30 am-------29.95- 74.1 80.4----
2024-02-23 05:24 am-------29.95- 73.9 80.4----
2024-02-23 05:18 am-------29.95- 74.1 80.4----
2024-02-23 05:12 am-------29.95- 73.8 80.4----
2024-02-23 05:06 am-------29.94- 73.9 80.4----
2024-02-23 05:00 am-------29.94+0.00 73.9 80.4----
2024-02-23 04:54 am-------29.94- 73.6 80.4----
2024-02-23 04:48 am-------29.94- 74.1 80.4----
2024-02-23 04:42 am-------29.94- 73.8 80.4----
2024-02-23 04:36 am-------29.94- 74.1 80.4----
2024-02-23 04:30 am-------29.94- 73.6 80.4----
2024-02-23 04:24 am-------29.94- 73.9 80.6----
2024-02-23 04:18 am-------29.93- 73.9 80.6----
2024-02-23 04:12 am-------29.93- 73.8 80.6----
2024-02-23 04:06 am-------29.93- 73.8 80.6----
2024-02-23 04:00 am-------29.93-0.03 73.6 80.6----
2024-02-23 03:54 am-------29.93- 73.8 80.6----
2024-02-23 03:48 am-------29.93- 73.8 80.8----
2024-02-23 03:42 am-------29.93- 74.1 80.8----
2024-02-23 03:36 am-------29.93- 74.1 80.8----
2024-02-23 03:30 am-------29.93- 74.3 80.8----
2024-02-23 03:24 am-------29.93- 74.1 80.8----
2024-02-23 03:18 am-------29.93- 74.1 80.8----
2024-02-23 03:12 am-------29.93- 74.5 80.8----
2024-02-23 03:06 am-------29.93- 74.3 80.8----
2024-02-23 03:00 am-------29.94-0.03 74.5 80.8----
2024-02-23 02:54 am-------29.94- 74.5 80.8----
2024-02-23 02:48 am-------29.94- 74.5 80.8----
2024-02-23 02:42 am-------29.94- 74.5 80.8----
2024-02-23 02:36 am-------29.94- 74.7 80.8----
2024-02-23 02:30 am-------29.94- 74.7 80.8----
2024-02-23 02:24 am-------29.95- 74.7 80.8----
2024-02-23 02:18 am-------29.95- 74.5 80.8----
2024-02-23 02:12 am-------29.95- 74.5 80.8----
2024-02-23 02:06 am-------29.95- 74.5 80.8----
2024-02-23 02:00 am-------29.95-0.03 74.7 80.8----
2024-02-23 01:54 am-------29.95- 74.5 80.8----
2024-02-23 01:48 am-------29.95- 74.5 80.8----
2024-02-23 01:42 am-------29.95- 74.5 80.8----
2024-02-23 01:36 am-------29.95- 74.8 80.8----
2024-02-23 01:30 am-------29.95- 74.7 80.8----
2024-02-23 01:24 am-------29.96- 74.7 80.8----
2024-02-23 01:18 am-------29.96- 74.8 80.8----
2024-02-23 01:12 am-------29.96- 74.7 80.8----
2024-02-23 01:06 am-------29.96- 74.8 81.0----
2024-02-23 01:00 am-------29.96-0.02 75.0 81.0----
2024-02-23 12:54 am-------29.96- 75.0 81.0----
2024-02-23 12:48 am-------29.96- 75.2 81.0----
2024-02-23 12:42 am-------29.96- 75.2 81.0----
2024-02-23 12:36 am-------29.97- 75.2 81.0----
2024-02-23 12:30 am-------29.97- 75.4 81.0----
2024-02-23 12:24 am-------29.97- 75.4 81.0----
2024-02-23 12:18 am-------29.97- 75.6 81.0----
2024-02-23 12:12 am-------29.97- 75.6 81.0----
2024-02-23 12:06 am-------29.97- 75.4 81.0----
2024-02-23 12:00 am-------29.97+0.00 75.4 81.0----
2024-02-22 11:54 pm-------29.97- 75.4 81.1----
2024-02-22 11:48 pm-------29.97- 75.4 81.1----
2024-02-22 11:42 pm-------29.97- 75.7 81.1----
2024-02-22 11:36 pm-------29.97- 75.7 81.1----
2024-02-22 11:30 pm-------29.97- 75.7 81.1----
2024-02-22 11:24 pm-------29.97- 75.7 81.1----
2024-02-22 11:18 pm-------29.97- 75.9 81.1----
2024-02-22 11:12 pm-------29.97- 75.7 81.1----
2024-02-22 11:06 pm-------29.98- 75.9 81.1----
2024-02-22 11:00 pm-------29.98+0.03 75.9 81.1----
2024-02-22 10:54 pm-------29.98- 75.9 81.1----
2024-02-22 10:48 pm-------29.98- 75.9 81.1----
2024-02-22 10:42 pm-------29.98- 76.1 81.1----
2024-02-22 10:36 pm-------29.98- 76.1 81.1----
2024-02-22 10:30 pm-------29.98- 76.1 81.1----
2024-02-22 10:24 pm-------29.98- 76.1 81.3----
2024-02-22 10:18 pm-------29.98- 76.3 81.3----
2024-02-22 10:12 pm-------29.98- 76.3 81.3----
2024-02-22 10:06 pm-------29.98- 76.3 81.3----
2024-02-22 10:00 pm-------29.98+0.05 76.3 81.3----
2024-02-22 09:54 pm-------29.98- 76.3 81.3----
2024-02-22 09:48 pm-------29.98- 76.3 81.3----
2024-02-22 09:42 pm-------29.98- 76.3 81.3----
2024-02-22 09:36 pm-------29.98- 76.3 81.3----
2024-02-22 09:30 pm-------29.98- 76.5 81.3----
2024-02-22 09:24 pm-------29.97- 76.5 81.3----
2024-02-22 09:18 pm-------29.97- 76.6 81.3----
2024-02-22 09:12 pm-------29.97- 76.8 81.3----
2024-02-22 09:06 pm-------29.97- 76.6 81.3----
2024-02-22 09:00 pm-------29.97+0.05 76.6 81.3----
2024-02-22 08:54 pm-------29.97- 76.5 81.3----
2024-02-22 08:48 pm-------29.97- 76.6 81.3----
2024-02-22 08:42 pm-------29.96- 76.6 81.3----
2024-02-22 08:36 pm-------29.96- 76.6 81.5----
2024-02-22 08:30 pm-------29.96- 76.6 81.5----
2024-02-22 08:24 pm-------29.96- 76.6 81.5----
2024-02-22 08:18 pm-------29.96- 76.8 81.5----
2024-02-22 08:12 pm-------29.95- 76.6 81.5----
2024-02-22 08:06 pm-------29.95- 76.5 81.5----
2024-02-22 08:00 pm-------29.95+0.04 76.5 81.5----
2024-02-22 07:54 pm-------29.94- 76.3 81.5----
2024-02-22 07:48 pm-------29.94- 76.3 81.5----
2024-02-22 07:42 pm-------29.94- 76.6 81.5----
2024-02-22 07:36 pm-------29.94- 76.6 81.5----
2024-02-22 07:30 pm-------29.94-- 81.5----
2024-02-22 07:24 pm-------29.93-- 81.5----
2024-02-22 07:18 pm-------29.93- 76.6 81.5----
2024-02-22 07:12 pm-------29.93- 76.6 81.5----
2024-02-22 07:00 pm-------29.93+0.04- 81.5----
2024-02-22 06:54 pm-------29.93-- 81.5----